Location: Chandrammap?lem
(16.9200°N, 81.0051°E)
Time: 14:11:55
(UTC+00:00)

Cosmos 1455 Rocket - Pass Details

Date: 29 May 2024
Orbit: 602 x 625 km, 82.5° (Epoch: 16 June)

Event Time Altitude Azimuth Distance (km) Brightness Sun altitude
Rises 22:06:47 0° 352° (N) 2,884 6.8 -25.0°
Reaches altitude 10° 22:09:01 10° 350° (N) 1,981 5.9 -24.6°
Enters shadow 22:12:52 63° 314° (NW) 692 3.1 -23.8°
